Abingdon, VA

3:49 AM EDT on May 25, 2017 (GMT -0400)
Virginia Highlands

Weather History for KVJI - December, 2013

Change the Weather History Date:

Friday, December 27, 2013

  Actual Average (KTRI) Record (KTRI)
Temperature  
Mean Temperature 36 °F -  
Max Temperature 48 °F 45 °F 77 °F (2015)
Min Temperature 25 °F 26 °F 8 °F (1948)
Degree Days  
Heating Degree Days 28    
Moisture  
Dew Point 23 °F    
Average Humidity 66    
Maximum Humidity 84    
Minimum Humidity 39    
Precipitation  
Precipitation 0.00 in - - ()
Sea Level Pressure  
Sea Level Pressure 30.37 in    
Wind  
Wind Speed 2 mph (South)    
Max Wind Speed 8 mph    
Max Gust Speed -    
Visibility 10 miles    
Events      
Averages and records for this station are not official NWS values.
T = Trace of Precipitation, MM = Missing Value Source: NWS Daily Summary

Daily Weather History Graph

Daily Weather History Graph

Search for Another Location

Airport or City:

Trip Planner

Search our weather history database for the weather conditions in past years. The results will help you decide how hot, cold, wet, or windy it might be!

Date:

Astronomy

Dec. 27, 2013 Rise Set
Actual Time 7:39 AM EST 5:19 PM EST
Civil Twilight 7:10 AM EST 5:48 PM EST
Nautical Twilight 6:38 AM EST 6:20 PM EST
Astronomical Twilight 6:06 AM EST 6:52 PM EST
Moon 2:14 AM EST (12/27) 1:24 PM EST (12/27)
Length of Visible Light 10h 37m
Length of Day
9h 40m
Waning Crescent, 28% of the Moon is Illuminated
Dec 27
Waning Crescent
Jan 1
New
Jan 7
First Quarter
Jan 15
Full
Jan 24
Last Quarter

Hourly Weather History & Observations

Time (EST) Temp. Windchill Dew Point Humidity Pressure Visibility Wind Dir Wind Speed Gust Speed Precip Events Conditions
12:15 AM 28.9 °F - 22.8 °F 78% 30.33 in 10.0 mi Calm Calm - N/A   Clear
12:35 AM 27.5 °F - 22.8 °F 83% 30.33 in 10.0 mi Calm Calm - N/A   Clear
12:55 AM 28.4 °F 24.6 °F 22.8 °F 80% 30.33 in 10.0 mi East 3.5 mph - N/A   Clear
1:15 AM 27.5 °F 23.6 °F 22.6 °F 82% 30.33 in 10.0 mi East 3.5 mph - N/A   Clear
1:35 AM 27.5 °F - 22.6 °F 82% 30.32 in 10.0 mi Calm Calm - N/A   Clear
1:55 AM 27.9 °F - 22.6 °F 81% 30.33 in 10.0 mi Calm Calm - N/A   Clear
2:15 AM 27.3 °F 23.4 °F 22.3 °F 81% 30.33 in 10.0 mi East 3.5 mph - N/A   Clear
2:35 AM 27.9 °F 21.5 °F 21.7 °F 78% 30.34 in 10.0 mi ESE 5.8 mph - N/A   Clear
2:55 AM 27.5 °F - 21.9 °F 80% 30.35 in 10.0 mi Calm Calm - N/A   Clear
3:15 AM 26.6 °F - 21.7 °F 82% 30.35 in 10.0 mi Calm Calm - N/A   Clear
3:35 AM 27.1 °F - 21.2 °F 78% 30.35 in 10.0 mi Calm Calm - N/A   Clear
3:55 AM 25.5 °F 18.7 °F 21.2 °F 84% 30.35 in 10.0 mi ESE 5.8 mph - N/A   Clear
4:15 AM 25.3 °F - 21.2 °F 84% 30.35 in 10.0 mi Calm Calm - N/A   Clear
4:35 AM 25.3 °F 18.5 °F 20.5 °F 82% 30.35 in 10.0 mi East 5.8 mph - N/A   Clear
4:55 AM 25.9 °F - 21.2 °F 82% 30.35 in 10.0 mi Calm Calm - N/A   Clear
5:15 AM 25.2 °F 19.5 °F 20.3 °F 82% 30.35 in 10.0 mi East 4.6 mph - N/A   Clear
5:35 AM 26.6 °F - 20.7 °F 78% 30.35 in 10.0 mi Calm Calm - N/A   Clear
5:55 AM 27.0 °F 19.5 °F 20.8 °F 78% 30.35 in 10.0 mi East 6.9 mph - N/A   Clear
6:15 AM 27.7 °F 23.8 °F 20.8 °F 75% 30.35 in 10.0 mi East 3.5 mph - N/A   Clear
6:35 AM 26.4 °F - 20.3 °F 78% 30.35 in 10.0 mi Calm Calm - N/A   Clear
6:55 AM 25.9 °F - 20.3 °F 79% 30.35 in 10.0 mi Calm Calm - N/A   Clear
7:15 AM 27.0 °F 21.6 °F 20.1 °F 75% 30.36 in 10.0 mi ENE 4.6 mph - N/A   Clear
7:35 AM 25.5 °F - 19.9 °F 79% 30.36 in 10.0 mi Calm Calm - N/A   Clear
7:55 AM 25.3 °F - 20.1 °F 81% 30.37 in 10.0 mi Calm Calm - N/A   Clear
8:15 AM 26.1 °F - 20.5 °F 79% 30.39 in 10.0 mi Calm Calm - N/A   Clear
8:35 AM 26.4 °F - 21.0 °F 80% 30.39 in 10.0 mi Calm Calm - N/A   Clear
8:55 AM 30.7 °F 26.0 °F 23.9 °F 76% 30.40 in 10.0 mi East 4.6 mph - N/A   Clear
9:15 AM 32.2 °F 27.7 °F 23.9 °F 72% 30.41 in 10.0 mi East 4.6 mph - N/A   Clear
9:35 AM 33.4 °F 29.1 °F 22.1 °F 63% 30.41 in 10.0 mi East 4.6 mph - N/A   Clear
9:55 AM 35.1 °F 32.2 °F 22.3 °F 60% 30.42 in 10.0 mi East 3.5 mph - N/A   Clear
10:15 AM 36.9 °F 34.3 °F 23.0 °F 57% 30.42 in 10.0 mi SE 3.5 mph - N/A   Clear
10:35 AM 38.3 °F - 24.3 °F 57% 30.43 in 10.0 mi Calm Calm - N/A   Clear
10:55 AM 40.3 °F - 24.4 °F 53% 30.42 in 10.0 mi Calm Calm - N/A   Clear
11:15 AM 41.5 °F - 22.8 °F 47% 30.42 in 10.0 mi Calm Calm - N/A   Clear
11:35 AM 42.6 °F 40.9 °F 20.7 °F 42% 30.42 in 10.0 mi SW 3.5 mph - N/A   Clear
11:55 AM 43.2 °F 40.5 °F 23.2 °F 45% 30.41 in 10.0 mi WSW 4.6 mph - N/A   Clear
12:15 PM 44.4 °F - 24.6 °F 46% 30.41 in 10.0 mi Calm Calm - N/A   Clear
12:35 PM 45.7 °F 42.7 °F 24.6 °F 44% 30.40 in 10.0 mi SW 5.8 mph - N/A   Clear
12:55 PM 45.9 °F 42.9 °F 24.1 °F 42% 30.39 in 10.0 mi SW 5.8 mph - N/A   Clear
1:15 PM 46.4 °F 42.4 °F 24.1 °F 42% 30.38 in 10.0 mi WSW 8.1 mph - N/A   Clear
1:35 PM 46.6 °F - 23.7 °F 41% 30.37 in 10.0 mi SW 8.1 mph - N/A   Clear
1:55 PM 46.8 °F - 23.9 °F 41% 30.37 in 10.0 mi SW 6.9 mph - N/A   Clear
2:15 PM 47.8 °F - 25.0 °F 41% 30.37 in 10.0 mi WSW 8.1 mph - N/A   Clear
2:35 PM 47.8 °F - 24.8 °F 41% 30.36 in 10.0 mi West 5.8 mph - N/A   Clear
2:55 PM 47.7 °F - 24.6 °F 41% 30.35 in 10.0 mi WSW 8.1 mph - N/A   Clear
3:15 PM 48.2 °F - 24.3 °F 39% 30.35 in 10.0 mi West 5.8 mph - N/A   Clear
3:35 PM 47.7 °F - 24.1 °F 40% 30.35 in 10.0 mi WSW 5.8 mph - N/A   Clear
3:55 PM 47.8 °F - 24.4 °F 40% 30.35 in 10.0 mi WSW 6.9 mph - N/A   Clear
4:15 PM 47.5 °F - 23.7 °F 39% 30.35 in 10.0 mi West 5.8 mph - N/A   Clear
4:35 PM 46.6 °F - 23.9 °F 41% 30.36 in 10.0 mi WSW 4.6 mph - N/A   Clear
4:55 PM 44.6 °F 42.2 °F 23.5 °F 44% 30.37 in 10.0 mi WSW 4.6 mph - N/A   Clear
5:15 PM 43.9 °F 41.3 °F 23.0 °F 44% 30.37 in 10.0 mi WSW 4.6 mph - N/A   Clear
5:35 PM 42.3 °F 39.4 °F 23.2 °F 47% 30.36 in 10.0 mi West 4.6 mph - N/A   Clear
5:55 PM 41.0 °F 39.0 °F 22.6 °F 48% 30.36 in 10.0 mi West 3.5 mph - N/A   Clear
6:15 PM 38.7 °F - 23.5 °F 55% 30.36 in 10.0 mi Calm Calm - N/A   Clear
6:35 PM 37.4 °F - 23.4 °F 57% 30.37 in 10.0 mi Calm Calm - N/A   Clear
6:55 PM 35.8 °F - 22.8 °F 59% 30.37 in 10.0 mi Calm Calm - N/A   Clear
7:15 PM 34.0 °F - 23.9 °F 67% 30.37 in 10.0 mi Calm Calm - N/A   Clear
7:35 PM 32.0 °F - 24.4 °F 74% 30.37 in 10.0 mi Calm Calm - N/A   Clear
7:55 PM 32.0 °F - 24.4 °F 74% 30.39 in 10.0 mi Calm Calm - N/A   Clear
8:15 PM 32.0 °F - 24.4 °F 74% 30.38 in 10.0 mi Calm Calm - N/A   Clear
8:35 PM 31.8 °F - 24.3 °F 74% 30.39 in 10.0 mi Calm Calm - N/A   Clear
8:55 PM 32.0 °F - 23.9 °F 72% 30.38 in 10.0 mi Calm Calm - N/A   Clear
9:15 PM 31.6 °F - 23.9 °F 73% 30.38 in 10.0 mi Calm Calm - N/A   Clear
9:35 PM 30.9 °F - 24.3 °F 76% 30.37 in 10.0 mi Calm Calm - N/A   Clear
9:55 PM 31.3 °F - 24.1 °F 75% 30.37 in 10.0 mi Calm Calm - N/A   Clear
10:15 PM 31.1 °F 27.7 °F 24.4 °F 76% 30.38 in 10.0 mi ESE 3.5 mph - N/A   Clear
10:35 PM 29.7 °F - 24.3 °F 80% 30.39 in 10.0 mi Calm Calm - N/A   Clear
10:55 PM 29.3 °F 25.6 °F 24.1 °F 81% 30.39 in 10.0 mi ESE 3.5 mph - N/A   Clear
11:15 PM 28.8 °F - 23.9 °F 82% 30.39 in 10.0 mi Calm Calm - N/A   Clear
11:35 PM 28.2 °F - 23.9 °F 84% 30.39 in 10.0 mi Calm Calm - N/A   Clear
11:55 PM 28.6 °F - 23.9 °F 83% 30.37 in 10.0 mi Calm Calm - N/A   Clear